[[{"header":{"parameterUnit":"m.s-1","parameterCategory":1,"la1":30.2991,"la2":30.254,"lo1":-89.0895,"lo2":-89.0444,"dy":0.0017,"dx":0.0017,"nx":28,"ny":28,"refTime":"2023-07-28T09:00:00:Z","depth":0,"parameterNumber":2,"parameterNumberName":"U-component_of_WINDS"},"data":[0,0,0,0,0,0,0,0,0,0,0,0,0,0,0,0,0,0,0,0,0,0,0,0,0,0,0,0,0,0,0,0,0,0,0,0,0,0,0,0,0,0,0,0,0,0,0,0,0,0,0,0,0,0,0,0,0,0,0.3146,0.3146,0,0.3152,0.3152,0.3153,0.3164,0.3164,0.3165,0.3165,0.3172,0.3172,0.3172,0,0,0,0,0,0,0,0,0,0,0,0,0,0.3144,0.3144,0.3146,0.3146,0.3146,0.3152,0.3152,0.3153,0.3164,0.3164,0.3165,0.3165,0.3172,0.3172,0.3172,0,0,0,0,0,0,0,0,0,0,0,0,0,0.3147,0.3144,0.3146,0.3153,0.3153,0.3152,0.3152,0.3153,0.3164,0.3164,0.3165,0.3165,0.3172,0.3172,0.3172,0.3165,0,0,0.3171,0.3171,0,0,0,0,0,0,0,0,0.3147,0.3147,0.3152,0.3152,0.3153,0.3158,0.3154,0.3157,0.3164,0.316,0.3165,0.3165,0.3167,0.3167,0.3168,0.3165,0.3165,0.3171,0.3171,0.3171,0.3171,0,0,0,0,0,0,0,0.3147,0.3147,0.3149,0.3152,0.3152,0.3156,0.3156,0.3155,0.3161,0.316,0.3161,0.3162,0.3167,0.3168,0.3168,0.3165,0.3171,0.3171,0.3171,0.3171,0.3158,0.3158,0,0,0,0,0,0,0.3146,0.3147,0.3148,0.3149,0.3151,0.3155,0.3156,0.3156,0.3161,0.3163,0.3162,0.3162,0.3168,0.3168,0.3168,0.3161,0.3171,0.3171,0.3171,0.3158,0.3158,0.3158,0,0,0,0,0,0,0.3146,0.3146,0.3148,0.3148,0.3149,0.3155,0.3155,0.3156,0.3156,0.3162,0.3164,0.3161,0.3168,0.3168,0.3166,0.3161,0.3171,0.3171,0.3159,0.3158,0.3158,0.3146,0,0,0,0,0,0,0.3146,0.3146,0.3143,0.3148,0.3149,0.3145,0.3154,0.3156,0.3156,0.3157,0.3162,0.3163,0.3168,0.3166,0.3165,0.3161,0.3171,0.3159,0.3158,0.3158,0.3146,0.3145,0.3143,0,0,0,0,0,0.3145,0.3139,0.3143,0.3143,0.3145,0.3145,0.3145,0.3151,0.3156,0.3153,0.3157,0.3163,0.3162,0.3165,0.3165,0.3161,0.3159,0.3159,0.3158,0.3147,0.3145,0.3143,0,0,0,0,0,0,0.3133,0.314,0.3144,0.3139,0.3141,0.3147,0.3144,0.3149,0.315,0.3151,0.3158,0.3159,0.3155,0.3158,0.3162,0.3155,0.3161,0.3161,0.3153,0.3151,0.315,0.3149,0.3171,0,0,0,0,0,0.313,0.3129,0.3135,0.313,0.3131,0.3137,0.3137,0.3142,0.3144,0.3145,0.3149,0.3151,0.3152,0.3152,0.3152,0.3147,0.3148,0.3144,0.3143,0.3141,0.314,0.3138,0.3137,0.3155,0.3155,0.3155,0,0,0.3123,0.3127,0.3126,0.3128,0.313,0.3129,0.3138,0.3136,0.3136,0.3145,0.3143,0.3146,0.3149,0.3145,0.3144,0.3147,0.3136,0.314,0.3139,0.3139,0.3137,0.3136,0.3134,0.3155,0.3155,0.3155,0,0,0.3111,0.3113,0.311,0.3112,0.3115,0.3119,0.3118,0.3123,0.3126,0.3123,0.3131,0.313,0.313,0.3132,0.3134,0.3122,0.3128,0.3122,0.3114,0.3112,0.3111,0.3109,0.3106,0.3104,0.3122,0.3122,0.3122,0,0.3102,0.3101,0.3107,0.3105,0.3106,0.3115,0.3111,0.3113,0.3116,0.3117,0.3121,0.3121,0.3124,0.3121,0.3119,0.3119,0.3119,0.3122,0.311,0.3109,0.3108,0.3105,0.3103,0.3121,0.3121,0.3121,0.3121,0,0.309,0.3089,0.3086,0.3089,0.3089,0.3087,0.3093,0.3093,0.3097,0.3101,0.3099,0.3103,0.3104,0.3104,0.3108,0.3102,0.3104,0.3109,0.3116,0.3105,0.3102,0.3101,0.312,0.312,0.312,0.3121,0,0,0.3069,0.3077,0.3075,0.3077,0.3081,0.3081,0.3079,0.3081,0.308,0.3083,0.3081,0.3081,0.3086,0.3087,0.3092,0.309,0.3082,0.3096,0.3096,0.3093,0.3075,0.3071,0.3069,0.3085,0.3085,0.3085,0.3075,0,0.3058,0.3055,0.3061,0.3056,0.3055,0.3064,0.3062,0.3065,0.3068,0.3069,0.3073,0.3073,0.3079,0.308,0.3079,0.3083,0.3078,0.3084,0.3084,0.3084,0.3083,0.3068,0.3064,0.3054,0.3074,0.3073,0.3073,0,0.3044,0.3045,0.3041,0.3046,0.3046,0.3044,0.3046,0.3046,0.305,0.3053,0.3054,0.306,0.3059,0.3066,0.3064,0.3068,0.3069,0.3071,0.3071,0.3071,0.3078,0.3068,0.3051,0.3049,0.3071,0.3071,0.3072,0,0.3029,0.303,0.3028,0.3029,0.3035,0.3034,0.3036,0.304,0.3041,0.3043,0.3044,0.3045,0.3046,0.3048,0.3054,0.3058,0.3052,0.3059,0.3055,0.3055,0.3053,0.3053,0.3036,0.3053,0.3053,0.3053,0.3053,0,0.3016,0.3013,0.3022,0.302,0.3017,0.3024,0.3021,0.3024,0.3028,0.3027,0.3035,0.3034,0.3042,0.3043,0.3048,0.3046,0.3046,0.3049,0.305,0.3048,0.3048,0.3049,0.3049,0.3053,0.3053,0.3053,0.3053,0,0.2999,0.3005,0.3003,0.3009,0.301,0.3008,0.3013,0.3012,0.3017,0.3016,0.3016,0.3023,0.3024,0.303,0.3033,0.3036,0.3033,0.3035,0.3031,0.3032,0.3027,0.3028,0.301,0.3009,0.3027,0.3027,0.3027,0,0.299,0.2988,0.2994,0.2994,0.2996,0.2996,0.2997,0.3004,0.3005,0.3009,0.3008,0.3009,0.3011,0.3012,0.3017,0.3019,0.3022,0.3016,0.3023,0.3021,0.3022,0.3022,0.3022,0.3015,0.3014,0.3014,0.3014,0,0.2973,0.2977,0.2977,0.2979,0.298,0.2982,0.2985,0.2984,0.2992,0.2993,0.2994,0.2995,0.2998,0.2999,0.3002,0.3005,0.3011,0.3012,0.3011,0.3009,0.3007,0.3008,0.3028,0.3012,0.3012,0.3013,0.3013,0.3013,0.296,0.2959,0.2963,0.2964,0.2967,0.2969,0.2968,0.2973,0.2974,0.2976,0.2981,0.2981,0.2985,0.299,0.2992,0.2993,0.2997,0.2995,0.2995,0.2994,0.2993,0.3007,0.2994,0.2994,0.2994,0.2994,0.2994,0,0.2944,0.2947,0.2948,0.2951,0.2952,0.2958,0.2961,0.2961,0.2961,0.2965,0.2966,0.2968,0.297,0.2975,0.2978,0.2977,0.298,0.2978,0.2978,0.2978,0.299,0.2991,0.2975,0.2975,0.2975,0.2975,0.2975,0.2975,0.2936,0.2934,0.2938,0.2937,0.294,0.2941,0.2942,0.2945,0.2947,0.2949,0.295,0.2954,0.2958,0.2961,0.2963,0.2965,0.2965,0.2962,0.2965,0.2976,0.2977,0.2979,0.298,0.2962,0.2962,0.2953,0.2953,0.2953]},{"header":{"parameterUnit":"m.s-1","parameterCategory":1,"la1":30.2991,"la2":30.254,"lo1":-89.0895,"lo2":-89.0444,"dy":0.0017,"dx":0.0017,"nx":28,"ny":28,"refTime":"2023-07-28T09:00:00:Z","depth":0,"parameterNumber":3,"parameterNumberName":"V-component_of_WINDS"},"data":[0,0,0,0,0,0,0,0,0,0,0,0,0,0,0,0,0,0,0,0,0,0,0,0,0,0,0,0,0,0,0,0,0,0,0,0,0,0,0,0,0,0,0,0,0,0,0,0,0,0,0,0,0,0,0,0,0,0,-0.8663,-0.8663,0,-0.8674,-0.8674,-0.8675,-0.8662,-0.8662,-0.8661,-0.8661,-0.8672,-0.8673,-0.8674,0,0,0,0,0,0,0,0,0,0,0,0,0,-0.8631,-0.8631,-0.8663,-0.8663,-0.8663,-0.8674,-0.8675,-0.8675,-0.8662,-0.8662,-0.8661,-0.8661,-0.8672,-0.8673,-0.8674,0,0,0,0,0,0,0,0,0,0,0,0,0,-0.8644,-0.8632,-0.8663,-0.8659,-0.8658,-0.8674,-0.8675,-0.8675,-0.8663,-0.8662,-0.8661,-0.866,-0.8672,-0.8673,-0.8674,-0.8695,0,0,-0.8677,-0.8678,0,0,0,0,0,0,0,0,-0.8643,-0.8645,-0.8659,-0.8659,-0.8659,-0.8666,-0.8667,-0.8681,-0.8663,-0.8661,-0.8661,-0.866,-0.8671,-0.8672,-0.8676,-0.8695,-0.8696,-0.8677,-0.8678,-0.8678,-0.8679,0,0,0,0,0,0,0,-0.8642,-0.8644,-0.8668,-0.8659,-0.8659,-0.8656,-0.8657,-0.867,-0.867,-0.8661,-0.866,-0.8662,-0.8671,-0.8675,-0.8676,-0.8696,-0.8677,-0.8678,-0.8679,-0.8679,-0.8733,-0.8734,0,0,0,0,0,0,-0.8642,-0.8644,-0.8667,-0.8668,-0.8649,-0.8657,-0.8658,-0.8664,-0.8669,-0.867,-0.8662,-0.8661,-0.8673,-0.8674,-0.8676,-0.8701,-0.8678,-0.868,-0.868,-0.8733,-0.8733,-0.8734,0,0,0,0,0,0,-0.8641,-0.8644,-0.8667,-0.8656,-0.8658,-0.8658,-0.8665,-0.8665,-0.8669,-0.867,-0.867,-0.8666,-0.8673,-0.8675,-0.869,-0.8701,-0.868,-0.8681,-0.8732,-0.8733,-0.8734,-0.8751,0,0,0,0,0,0,-0.864,-0.8644,-0.8652,-0.8656,-0.8659,-0.8681,-0.8666,-0.8666,-0.8671,-0.867,-0.8674,-0.8674,-0.8672,-0.8689,-0.8691,-0.8702,-0.8682,-0.8731,-0.8732,-0.8734,-0.8749,-0.8752,-0.8755,0,0,0,0,0,-0.8639,-0.8656,-0.8652,-0.8655,-0.8669,-0.8681,-0.8683,-0.868,-0.8672,-0.868,-0.8681,-0.8674,-0.87,-0.869,-0.8693,-0.8705,-0.873,-0.8732,-0.8733,-0.8748,-0.8752,-0.8755,0,0,0,0,0,0,-0.8653,-0.8656,-0.8652,-0.8671,-0.8676,-0.8679,-0.8689,-0.8684,-0.8692,-0.869,-0.8686,-0.8687,-0.8704,-0.8706,-0.8696,-0.8725,-0.8713,-0.8716,-0.8723,-0.8727,-0.873,-0.8729,-0.8683,0,0,0,0,0,-0.8658,-0.8668,-0.8671,-0.8687,-0.869,-0.8689,-0.8694,-0.8692,-0.8697,-0.8699,-0.8701,-0.8706,-0.8715,-0.8721,-0.8729,-0.8749,-0.875,-0.8759,-0.8761,-0.8764,-0.8766,-0.8776,-0.878,-0.874,-0.874,-0.874,0,0,-0.8669,-0.8672,-0.8679,-0.869,-0.8693,-0.8704,-0.8691,-0.8702,-0.871,-0.8701,-0.8716,-0.8717,-0.8723,-0.874,-0.8748,-0.8743,-0.8777,-0.8766,-0.8768,-0.8769,-0.8779,-0.8782,-0.8786,-0.8741,-0.8741,-0.8741,0,0,-0.8694,-0.8698,-0.8711,-0.8715,-0.8721,-0.8721,-0.8724,-0.8728,-0.8729,-0.8744,-0.8737,-0.8746,-0.8762,-0.8766,-0.877,-0.8797,-0.8791,-0.88,-0.8815,-0.8825,-0.8828,-0.8831,-0.8841,-0.8844,-0.8802,-0.8802,-0.8802,0,-0.8707,-0.8722,-0.8719,-0.8731,-0.8736,-0.8728,-0.8742,-0.8746,-0.8755,-0.8758,-0.8752,-0.8771,-0.8774,-0.8793,-0.88,-0.8803,-0.8807,-0.8799,-0.8828,-0.8831,-0.8834,-0.8843,-0.8846,-0.8803,-0.8803,-0.8803,-0.8803,0,-0.8738,-0.8749,-0.8759,-0.8767,-0.8774,-0.8787,-0.8785,-0.8792,-0.8789,-0.8789,-0.8805,-0.8808,-0.8817,-0.8821,-0.8818,-0.884,-0.8836,-0.8829,-0.8817,-0.8838,-0.8847,-0.885,-0.8805,-0.8804,-0.8804,-0.8804,0,0,-0.8772,-0.8778,-0.8782,-0.8786,-0.8792,-0.88,-0.8813,-0.8821,-0.8827,-0.8833,-0.8844,-0.8857,-0.8851,-0.8856,-0.8853,-0.8862,-0.8883,-0.8854,-0.8854,-0.8859,-0.8907,-0.8912,-0.8916,-0.8879,-0.888,-0.8881,-0.8906,0,-0.8797,-0.8819,-0.8817,-0.8838,-0.8847,-0.884,-0.8851,-0.8856,-0.8857,-0.8865,-0.8866,-0.8875,-0.8866,-0.8869,-0.8878,-0.8879,-0.8893,-0.8877,-0.8889,-0.8889,-0.8888,-0.892,-0.8926,-0.895,-0.891,-0.891,-0.8911,0,-0.8829,-0.8836,-0.8858,-0.8863,-0.8867,-0.8877,-0.8885,-0.8893,-0.8898,-0.8898,-0.8904,-0.89,-0.8912,-0.89,-0.8918,-0.8907,-0.8912,-0.8913,-0.8914,-0.8915,-0.8901,-0.8922,-0.8958,-0.8961,-0.8916,-0.8915,-0.8915,0,-0.8851,-0.8867,-0.8882,-0.8885,-0.8891,-0.8898,-0.8901,-0.8905,-0.8911,-0.8918,-0.8921,-0.893,-0.8934,-0.8941,-0.8939,-0.8931,-0.8957,-0.8945,-0.8957,-0.8957,-0.8963,-0.8962,-0.8999,-0.8966,-0.8966,-0.8966,-0.8966,0,-0.888,-0.8894,-0.8892,-0.8901,-0.8917,-0.8914,-0.8929,-0.8931,-0.8935,-0.8944,-0.8938,-0.8947,-0.8945,-0.8953,-0.8952,-0.8967,-0.8969,-0.8969,-0.8968,-0.8969,-0.8969,-0.8972,-0.897,-0.8967,-0.8967,-0.8966,-0.8966,0,-0.8907,-0.8907,-0.8923,-0.8927,-0.8928,-0.8939,-0.8943,-0.8952,-0.8952,-0.8964,-0.8966,-0.8967,-0.8977,-0.8976,-0.8987,-0.8986,-0.9004,-0.9002,-0.9003,-0.9002,-0.9014,-0.9013,-0.9054,-0.9059,-0.9023,-0.9023,-0.9024,0,-0.8925,-0.8936,-0.8941,-0.8947,-0.895,-0.896,-0.8966,-0.8963,-0.8969,-0.8976,-0.8984,-0.8994,-0.9001,-0.9018,-0.9019,-0.9028,-0.9025,-0.9039,-0.9026,-0.9027,-0.9025,-0.9024,-0.9025,-0.9041,-0.9042,-0.9042,-0.9042,0,-0.8957,-0.8957,-0.8965,-0.8974,-0.8981,-0.8987,-0.8993,-0.8998,-0.8997,-0.9004,-0.9014,-0.902,-0.9032,-0.9041,-0.9049,-0.9052,-0.9047,-0.9046,-0.905,-0.9051,-0.9051,-0.9051,-0.9009,-0.9045,-0.9045,-0.9045,-0.9045,-0.9045,-0.898,-0.8989,-0.8994,-0.9004,-0.9008,-0.9014,-0.9023,-0.9024,-0.9033,-0.9042,-0.904,-0.9052,-0.9057,-0.9067,-0.9071,-0.908,-0.9075,-0.9079,-0.908,-0.9082,-0.9083,-0.9049,-0.9081,-0.9081,-0.9081,-0.9081,-0.9081,0,-0.9012,-0.9015,-0.9024,-0.9033,-0.904,-0.9035,-0.9041,-0.9048,-0.9058,-0.9064,-0.9071,-0.9083,-0.9092,-0.9094,-0.9103,-0.911,-0.9108,-0.9113,-0.9112,-0.9113,-0.9087,-0.9083,-0.9114,-0.9114,-0.9114,-0.9114,-0.9114,-0.9114,-0.9029,-0.9044,-0.9044,-0.9061,-0.9064,-0.9075,-0.9079,-0.9085,-0.9089,-0.9102,-0.911,-0.9112,-0.9115,-0.9125,-0.9133,-0.9133,-0.9137,-0.9142,-0.9141,-0.9118,-0.9114,-0.9111,-0.9108,-0.9143,-0.9143,-0.9166,-0.9166,-0.9166]}]]